軌道要素
Epoch 2017 Sept. 4.0 TT = JDT 2458000.5
T 2017 Aug. 28.59743 TT Rudenko
q 2.7203016 (2000.0) P Q
z -0.0006727 Peri. 128.36379 +0.80634824 -0.53708571
+/-0.0000003 Node 94.55067 -0.58984668 -0.69954075
e 1.0018300 Incl. 165.61387 -0.04339838 -0.47136152
From 2062 observations 2015 Nov. 2-2018 July 16, mean residual 0".5.
|